TimeCST,TemperatureF,Dew PointF,Humidity,Sea Level PressureIn,VisibilityMPH,Wind Direction,Wind SpeedMPH,Gust SpeedMPH,PrecipitationIn,Events,Conditions,WindDirDegrees,DateUTC
12:52 AM,33.1,26.1,75,30.37,10.0,East,8.1,-,N/A,,Overcast,100,2013-02-09 06:52:00
1:52 AM,33.1,25.0,72,30.38,10.0,East,9.2,-,N/A,,Overcast,90,2013-02-09 07:52:00
2:52 AM,33.1,25.0,72,30.37,10.0,East,5.8,-,N/A,,Overcast,100,2013-02-09 08:52:00
3:52 AM,33.1,25.0,72,30.39,10.0,Calm,Calm,-,N/A,,Overcast,0,2013-02-09 09:52:00
4:52 AM,33.1,25.0,72,30.38,10.0,East,4.6,-,N/A,,Overcast,90,2013-02-09 10:52:00
5:52 AM,33.1,25.0,72,30.38,10.0,East,8.1,-,N/A,,Overcast,90,2013-02-09 11:52:00
6:52 AM,33.1,25.0,72,30.36,10.0,East,9.2,-,N/A,,Overcast,100,2013-02-09 12:52:00
7:52 AM,33.1,25.0,72,30.37,10.0,SE,6.9,-,N/A,,Mostly Cloudy,130,2013-02-09 13:52:00
8:52 AM,34.0,25.0,70,30.38,10.0,ESE,10.4,-,N/A,,Overcast,120,2013-02-09 14:52:00
9:52 AM,35.1,26.1,70,30.37,10.0,SSE,9.2,-,N/A,,Overcast,160,2013-02-09 15:52:00
10:38 AM,37.4,26.6,65,30.35,10.0,SSE,8.1,-,N/A,,Scattered Clouds,150,2013-02-09 16:38:00
10:52 AM,39.0,27.0,62,30.36,10.0,SSE,6.9,19.6,N/A,,Partly Cloudy,160,2013-02-09 16:52:00
11:52 AM,41.0,27.0,57,30.32,10.0,SW,4.6,-,N/A,,Clear,230,2013-02-09 17:52:00
12:52 PM,43.0,27.0,53,30.29,10.0,ESE,4.6,-,N/A,,Clear,120,2013-02-09 18:52:00
1:52 PM,46.0,27.0,47,30.25,10.0,NE,3.5,-,N/A,,Clear,50,2013-02-09 19:52:00
2:52 PM,46.9,28.0,48,30.22,10.0,ESE,5.8,-,N/A,,Clear,110,2013-02-09 20:52:00
3:52 PM,48.0,28.0,46,30.19,10.0,SE,9.2,-,N/A,,Clear,130,2013-02-09 21:52:00
4:52 PM,46.0,28.0,50,30.17,10.0,SE,6.9,-,N/A,,Clear,140,2013-02-09 22:52:00
5:52 PM,43.0,28.0,56,30.15,10.0,SE,5.8,-,N/A,,Clear,130,2013-02-09 23:52:00
6:52 PM,43.0,28.9,58,30.14,10.0,SE,4.6,-,N/A,,Clear,130,2013-02-10 00:52:00
7:52 PM,44.1,28.0,53,30.15,10.0,Calm,Calm,-,N/A,,Clear,0,2013-02-10 01:52:00
8:52 PM,43.0,28.9,58,30.15,10.0,Calm,Calm,-,N/A,,Scattered Clouds,0,2013-02-10 02:52:00
9:52 PM,42.1,30.9,65,30.12,10.0,ESE,3.5,-,N/A,,Mostly Cloudy,120,2013-02-10 03:52:00
10:52 PM,42.1,34.0,73,30.10,8.0,ESE,3.5,-,0.02,Rain,Light Rain,110,2013-02-10 04:52:00
11:52 PM,42.1,35.1,76,30.06,10.0,ESE,5.8,-,0.03,,Overcast,120,2013-02-10 05:52:00